{"data":{"norad_id":57125,"intl_designator":"2023-090AA","name":"STARLINK-6100","alt_names":[],"object_type":"PAYLOAD","status":"ACTIVE","operator":null,"country":"US","launch_date":"2023-06-23","launch_site_code":"AFETR","launch_vehicle":null,"mission":null,"orbit_class":"UNKNOWN","rcs_meters":null,"size_class":null,"mass_kg":null,"dimensions":null,"purposes":["comms"],"wikipedia_slug":null,"has_3d_model":false,"image_url":null,"decayed_at":null,"tle_current":{"epoch":"2026-09-20T09:39:50.823648Z","epoch_age_seconds":129411,"freshness":"FRESH","line1":"1 57125U 23090AA  26263.40267157 -.00000412  00000+0 -54444-5 0  9999","line2":"2 57125  43.0031 243.5844 0001306 289.5107  70.5604 15.27575624180134","mean_motion":15.27575624,"eccentricity":0.0001306,"inclination_deg":43.0031,"raan_deg":243.5844,"arg_perigee_deg":289.5107,"mean_anomaly_deg":70.5604,"bstar":-5.4444e-6,"rev_number":18013,"period_min":94.267018756775,"perigee_km":482.16612677375,"apogee_km":483.95827200463,"semimajor_km":6861.1991993892,"source":"CELESTRAK","updated_at":"2026-09-21T09:00:33.563004Z"}}}